User: anonymous   Login
Location: Acton
(51.4942°N, 0.2232°W)
Time: 03:59:31
(UTC+00:00)
Language:

CZ-2C R/B - Orbit

View from above orbital plane
View from above orbital plane
View from above satellite
View from above satellite

Ground track
Ground track

The orbit data is extracted from the following two-line orbital elements,

1 37766U 11039B   20333.49862803 +.00000124 +00000-0 +31628-4 0  9995
2 37766 098.3572 189.9554 0044671 226.6790 133.0686 14.66511905499467
Epoch (UTC): 28 November 2020 11:58:01
Eccentricity: 0.0044671
inclination: 98.3572°
perigee height: 641 km
apogee height: 704 km
right ascension of ascending node: 189.9554°
argument of perigee: 226.6790°
revolutions per day: 14.66511905
mean anomaly at epoch: 133.0686°
orbit number at epoch: 49946

The dashed part of the orbit path shows where the satellite is in the earth's shadow,  

DLR